| time (UTC) | temp F | wind direction | speed MPH | gust MPH | rain 1hr in | rain 24hr in | rain mn in | humidity % | barometer mb |
| 20260903053105 | 64 | 0 | 0.0 | 1.0 | 0.00 | 0.00 | 0.00 | 45 | 1021.2 |
| 20260903051602 | 64 | 0 | 0.0 | 3.0 | 0.00 | 0.00 | 0.00 | 44 | 1021.3 |
| 20260903050128 | 64 | 232 | 0.0 | 2.0 | 0.00 | 0.00 | 0.00 | 45 | 1021.3 |
| 20260903044606 | 65 | 0 | 0.0 | 1.0 | 0.00 | 0.00 | 0.00 | 45 | 1021.4 |
| 20260903043100 | 65 | 0 | 0.0 | 0.0 | 0.00 | 0.00 | 0.00 | 45 | 1021.7 |
| 20260903041603 | 65 | 0 | 0.0 | 0.0 | 0.00 | 0.00 | 0.00 | 45 | 1021.7 |
| 20260903040109 | 65 | 264 | 0.0 | 1.0 | 0.00 | 0.00 | 0.00 | 44 | 1021.7 |
| 20260903034603 | 66 | 0 | 0.0 | 0.0 | 0.00 | 0.00 | 0.00 | 43 | 1021.5 |
| 20260903033103 | 67 | 0 | 0.0 | 6.0 | 0.00 | 0.00 | 0.00 | 38 | 1021.4 |
| 20260903031604 | 66 | 122 | 0.0 | 2.0 | 0.00 | 0.00 | 0.00 | 40 | 1021.6 |
| 20260903030108 | 67 | 0 | 0.0 | 1.0 | 0.00 | 0.00 | 0.00 | 40 | 1021.4 |
| 20260903024600 | 69 | 0 | 0.0 | 3.0 | 0.00 | 0.00 | 0.00 | 36 | 1021.5 |
| 20260903023100 | 69 | 0 | 1.0 | 4.0 | 0.00 | 0.00 | 0.00 | 35 | 1021.3 |
| 20260903021609 | 69 | 124 | 2.0 | 6.0 | 0.00 | 0.00 | 0.00 | 36 | 1020.9 |
| 20260903020106 | 69 | 0 | 1.0 | 10.0 | 0.00 | 0.00 | 0.00 | 36 | 1020.8 |
| 20260903014612 | 70 | 0 | 3.0 | 9.0 | 0.00 | 0.00 | 0.00 | 37 | 1020.7 |
| 20260903013104 | 70 | 213 | 6.0 | 12.0 | 0.00 | 0.00 | 0.00 | 37 | 1020.6 |
| 20260903011611 | 71 | 181 | 5.0 | 13.0 | 0.00 | 0.00 | 0.00 | 36 | 1020.4 |
| 20260903010106 | 71 | 153 | 1.0 | 7.0 | 0.00 | 0.00 | 0.00 | 35 | 1020.3 |
| 20260903004603 | 71 | 0 | 0.0 | 4.0 | 0.00 | 0.00 | 0.00 | 38 | 1020.3 |
| 20260903003103 | 72 | 229 | 0.0 | 4.0 | 0.00 | 0.00 | 0.00 | 38 | 1020.4 |
| 20260903001607 | 72 | 195 | 2.0 | 6.0 | 0.00 | 0.00 | 0.00 | 35 | 1020.7 |
| 20260903000107 | 72 | 236 | 2.0 | 6.0 | 0.00 | 0.00 | 0.00 | 35 | 1020.5 |
| 20260902234606 | 73 | 186 | 0.0 | 3.0 | 0.00 | 0.00 | 0.00 | 38 | 1020.6 |
| 20260902233102 | 72 | 321 | 0.0 | 4.0 | 0.00 | 0.00 | 0.00 | 38 | 1020.9 |
| 20260902231609 | 70 | 285 | 3.0 | 12.0 | 0.00 | 0.00 | 0.00 | 39 | 1021.1 |
| 20260902230109 | 69 | 228 | 3.0 | 9.0 | 0.00 | 0.00 | 0.00 | 39 | 1021.8 |
| 20260902224606 | 73 | 218 | 6.0 | 19.0 | 0.00 | 0.00 | 0.00 | 34 | 1021.7 |
| 20260902223109 | 77 | 209 | 2.0 | 9.0 | 0.00 | 0.00 | 0.00 | 25 | 1020.8 |
| 20260902221602 | 78 | 79 | 4.0 | 8.0 | 0.00 | 0.00 | 0.00 | 24 | 1020.3 |
| 20260902220109 | 79 | 13 | 5.0 | 13.0 | 0.00 | 0.00 | 0.00 | 23 | 1020.1 |
| 20260902214606 | 78 | 44 | 2.0 | 8.0 | 0.00 | 0.00 | 0.00 | 24 | 1020.2 |
| 20260902213102 | 78 | 40 | 3.0 | 8.0 | 0.00 | 0.00 | 0.00 | 24 | 1020.5 |
| 20260902211604 | 78 | 108 | 4.0 | 12.0 | 0.00 | 0.00 | 0.00 | 24 | 1020.7 |
| 20260902210105 | 78 | 18 | 4.0 | 11.0 | 0.00 | 0.00 | 0.00 | 25 | 1021.0 |
| 20260902204604 | 78 | 40 | 5.0 | 12.0 | 0.00 | 0.00 | 0.00 | 25 | 1021.2 |
| 20260902203102 | 76 | 94 | 3.0 | 6.0 | 0.00 | 0.00 | 0.00 | 27 | 1021.5 |
| 20260902201606 | 75 | 55 | 2.0 | 10.0 | 0.00 | 0.00 | 0.00 | 28 | 1021.8 |
| 20260902200117 | 75 | 15 | 2.0 | 10.0 | 0.00 | 0.00 | 0.00 | 27 | 1022.0 |
| 20260902194607 | 76 | 94 | 2.0 | 10.0 | 0.00 | 0.00 | 0.00 | 27 | 1022.1 |
| 20260902193107 | 75 | 15 | 6.0 | 12.0 | 0.00 | 0.00 | 0.00 | 27 | 1022.1 |
| 20260902191606 | 77 | 0 | 4.0 | 11.0 | 0.00 | 0.00 | 0.00 | 27 | 1022.2 |
| 20260902190106 | 77 | 18 | 2.0 | 11.0 | 0.00 | 0.00 | 0.00 | 27 | 1022.2 |
| 20260902184609 | 77 | 38 | 5.0 | 12.0 | 0.00 | 0.00 | 0.00 | 27 | 1022.6 |
| 20260902183108 | 76 | 28 | 3.0 | 12.0 | 0.00 | 0.00 | 0.00 | 28 | 1022.8 |
| 20260902181603 | 75 | 103 | 4.0 | 11.0 | 0.00 | 0.00 | 0.00 | 29 | 1023.1 |
| 20260902180132 | 76 | 337 | 3.0 | 8.0 | 0.00 | 0.00 | 0.00 | 29 | 1023.1 |
| 20260902174605 | 77 | 11 | 5.0 | 18.0 | 0.00 | 0.00 | 0.00 | 27 | 1023.2 |
| 20260902173104 | 80 | 352 | 3.0 | 12.0 | 0.00 | 0.00 | 0.00 | 25 | 1023.4 |
| 20260902171608 | 78 | 274 | 3.0 | 10.0 | 0.00 | 0.00 | 0.00 | 23 | 1023.4 |
| 20260902170105 | 77 | 195 | 3.0 | 9.0 | 0.00 | 0.00 | 0.00 | 24 | 1023.7 |
| 20260902164608 | 77 | 205 | 2.0 | 14.0 | 0.00 | 0.00 | 0.00 | 23 | 1023.7 |
| 20260902163107 | 77 | 0 | 3.0 | 13.0 | 0.00 | 0.00 | 0.00 | 25 | 1023.9 |
| 20260902161606 | 77 | 198 | 4.0 | 12.0 | 0.00 | 0.00 | 0.00 | 24 | 1023.8 |
| 20260902160111 | 76 | 258 | 4.0 | 13.0 | 0.00 | 0.00 | 0.00 | 24 | 1023.8 |
| 20260902154602 | 76 | 193 | 3.0 | 12.0 | 0.00 | 0.00 | 0.00 | 25 | 1023.6 |
| 20260902153104 | 75 | 233 | 2.0 | 10.0 | 0.00 | 0.00 | 0.00 | 25 | 1023.6 |
| 20260902151604 | 74 | 49 | 4.0 | 11.0 | 0.00 | 0.00 | 0.00 | 29 | 1023.3 |
| 20260902144607 | 75 | 95 | 0.0 | 3.0 | 0.00 | 0.00 | 0.00 | 26 | 1023.1 |
| 20260902143108 | 74 | 207 | 1.0 | 7.0 | 0.00 | 0.00 | 0.00 | 26 | 1023.1 |
| 20260902141604 | 73 | 181 | 2.0 | 10.0 | 0.00 | 0.00 | 0.00 | 27 | 1023.2 |
| 20260902134607 | 71 | 207 | 1.0 | 7.0 | 0.00 | 0.00 | 0.00 | 29 | 1023.1 |
| 20260902133105 | 70 | 81 | 1.0 | 6.0 | 0.00 | 0.00 | 0.00 | 29 | 1023.0 |
| 20260902131602 | 69 | 214 | 1.0 | 4.0 | 0.00 | 0.00 | 0.00 | 30 | 1022.9 |
| 20260902130104 | 66 | 206 | 3.0 | 9.0 | 0.00 | 0.00 | 0.00 | 34 | 1022.7 |
| 20260902124608 | 63 | 266 | 0.0 | 3.0 | 0.00 | 0.00 | 0.00 | 37 | 1022.7 |
| 20260902123105 | 64 | 0 | 0.0 | 4.0 | 0.00 | 0.00 | 0.00 | 37 | 1022.7 |
| 20260902121613 | 64 | 309 | 1.0 | 7.0 | 0.00 | 0.00 | 0.00 | 37 | 1022.6 |
| 20260902120141 | 62 | 199 | 1.0 | 5.0 | 0.00 | 0.00 | 0.00 | 41 | 1022.4 |
| 20260902114602 | 61 | 0 | 0.0 | 3.0 | 0.00 | 0.00 | 0.00 | 45 | 1022.3 |
| 20260902113111 | 61 | 266 | 1.0 | 6.0 | 0.00 | 0.00 | 0.00 | 45 | 1022.5 |
| 20260902111605 | 62 | 0 | 1.0 | 6.0 | 0.00 | 0.00 | 0.00 | 44 | 1022.5 |
| 20260902110116 | 63 | 243 | 0.0 | 9.0 | 0.00 | 0.00 | 0.00 | 43 | 1022.7 |
| 20260902104602 | 62 | 205 | 0.0 | 4.0 | 0.00 | 0.00 | 0.00 | 44 | 1022.8 |
| 20260902103105 | 62 | 0 | 0.0 | 1.0 | 0.00 | 0.00 | 0.00 | 43 | 1022.7 |
| 20260902101607 | 63 | 276 | 0.0 | 5.0 | 0.00 | 0.00 | 0.00 | 41 | 1022.7 |
| 20260902100113 | 64 | 200 | 2.0 | 8.0 | 0.00 | 0.00 | 0.00 | 39 | 1022.6 |
| 20260902094601 | 65 | 0 | 2.0 | 6.0 | 0.00 | 0.00 | 0.00 | 39 | 1022.6 |
| 20260902093105 | 65 | 220 | 3.0 | 10.0 | 0.00 | 0.00 | 0.00 | 38 | 1022.6 |
| 20260902091603 | 66 | 195 | 5.0 | 9.0 | 0.00 | 0.00 | 0.00 | 37 | 1022.8 |
| 20260902090100 | 66 | 207 | 2.0 | 9.0 | 0.00 | 0.00 | 0.00 | 37 | 1022.7 |
| 20260902084622 | 66 | 210 | 4.0 | 11.0 | 0.00 | 0.00 | 0.00 | 36 | 1022.6 |
| 20260902083101 | 65 | 205 | 2.0 | 7.0 | 0.00 | 0.00 | 0.00 | 38 | 1022.6 |
| 20260902081607 | 64 | 217 | 0.0 | 4.0 | 0.00 | 0.00 | 0.00 | 40 | 1022.6 |
| 20260902074607 | 66 | 0 | 0.0 | 7.0 | 0.00 | 0.00 | 0.00 | 39 | 1022.8 |
| 20260902073106 | 64 | 213 | 3.0 | 8.0 | 0.00 | 0.00 | 0.00 | 41 | 1022.7 |
| 20260902071607 | 65 | 257 | 0.0 | 6.0 | 0.00 | 0.00 | 0.00 | 39 | 1022.8 |
| 20260902070119 | 66 | 0 | 0.0 | 4.0 | 0.00 | 0.00 | 0.00 | 39 | 1022.9 |
| 20260902064610 | 66 | 0 | 0.0 | 5.0 | 0.00 | 0.01 | 0.00 | 39 | 1023.1 |
| 20260902063104 | 65 | 236 | 1.0 | 5.0 | 0.00 | 0.01 | 0.00 | 40 | 1023.0 |
| 20260902061610 | 65 | 0 | 0.0 | 5.0 | 0.00 | 0.01 | 0.00 | 41 | 1023.0 |
| 20260902060111 | 64 | 195 | 2.0 | 5.0 | 0.00 | 0.01 | 0.00 | 42 | 1023.2 |
| 20260902054604 | 63 | 0 | 0.0 | 5.0 | 0.00 | 0.01 | 0.01 | 42 | 1023.4 |